When you browse on this site, cookies collect data to enhance your experience and personalize the content and advertising you see.
Visit our Privacy Policy to learn more. By continuing to use the site, you agree to this use of cookies and data.
  • In Denmark
  • List of Countries
  • For 7 days
  • Water Temperature
  • Weather Map
  • Weather Widgets
  • user-avatar
    Login

    Hourly Weather Salamanca

    Today, 13 December, Friday

    Time Temperature Precipitation Wind Pressure Humidity
    00:00 +10°C° 0 mm 9 mps 691 mmHg 92%
    01:00 +10°C° 0.1 mm 9 mps 691 mmHg 91%
    02:00 +10°C° 0.1 mm 9 mps 690 mmHg 90%
    03:00 +8°C° 0.1 mm 9 mps 690 mmHg 89%
    04:00 +8°C° 0.1 mm 9 mps 690 mmHg 88%
    05:00 +8°C° 0.1 mm 9 mps 691 mmHg 87%
    06:00 +7°C° 0 mm 8 mps 691 mmHg 86%
    07:00 +7°C° 0.1 mm 8 mps 691 mmHg 86%
    08:00 +7°C° 0.1 mm 8 mps 692 mmHg 86%
    09:00 +7°C° 0.1 mm 8 mps 692 mmHg 86%
    10:00 +9°C° 0 mm 8 mps 692 mmHg 85%
    11:00 +9°C° 0 mm 8 mps 693 mmHg 83%
    12:00 +10°C° 0 mm 9 mps 693 mmHg 82%
    13:00 +10°C° 0 mm 9 mps 693 mmHg 83%
    14:00 +10°C° 0 mm 9 mps 692 mmHg 83%
    15:00 +10°C° 0 mm 8 mps 692 mmHg 83%
    16:00 +9°C° 0 mm 8 mps 692 mmHg 86%
    17:00 +9°C° 0 mm 7 mps 692 mmHg 88%
    18:00 +8°C° 0 mm 6 mps 693 mmHg 91%
    19:00 +8°C° 0 mm 7 mps 693 mmHg 92%
    20:00 +6°C° 0 mm 7 mps 693 mmHg 92%
    21:00 +6°C° 0 mm 7 mps 693 mmHg 93%
    22:00 +6°C° 0 mm 7 mps 693 mmHg 93%
    23:00 +6°C° 0 mm 7 mps 693 mmHg 92%

    Tomorrow, 14 December, Saturday

    Time Temperature Precipitation Wind Pressure Humidity
    00:00 +6°C° 0 mm 7 mps 693 mmHg 91%
    01:00 +6°C° 0 mm 7 mps 693 mmHg 90%
    02:00 +6°C° 0 mm 7 mps 693 mmHg 89%
    03:00 +6°C° 0 mm 7 mps 693 mmHg 87%
    04:00 +7°C° 0 mm 6 mps 693 mmHg 87%
    05:00 +7°C° 0 mm 6 mps 693 mmHg 87%
    06:00 +7°C° 0 mm 5 mps 693 mmHg 87%
    07:00 +7°C° 0 mm 5 mps 693 mmHg 87%
    08:00 +7°C° 0 mm 5 mps 693 mmHg 86%
    09:00 +7°C° 0 mm 5 mps 694 mmHg 86%
    10:00 +8°C° 0 mm 5 mps 694 mmHg 82%
    11:00 +8°C° 0 mm 6 mps 693 mmHg 78%
    12:00 +9°C° 0 mm 7 mps 693 mmHg 75%
    13:00 +9°C° 0 mm 7 mps 693 mmHg 74%
    14:00 +9°C° 0 mm 7 mps 692 mmHg 74%
    15:00 +9°C° 0 mm 7 mps 692 mmHg 74%
    16:00 +8°C° 0 mm 6 mps 692 mmHg 78%
    17:00 +7°C° 0 mm 6 mps 692 mmHg 82%
    18:00 +6°C° 0 mm 5 mps 691 mmHg 86%
    19:00 +5°C° 0 mm 6 mps 692 mmHg 87%
    20:00 +5°C° 0 mm 6 mps 692 mmHg 88%
    21:00 +5°C° 0 mm 6 mps 692 mmHg 89%
    22:00 +5°C° 0 mm 6 mps 692 mmHg 89%
    23:00 +5°C° 0 mm 7 mps 692 mmHg 89%

    Day after tomorrow, 15 December, Sunday

    Time Temperature Precipitation Wind Pressure Humidity
    00:00 +5°C° 0 mm 7 mps 691 mmHg 89%
    01:00 +5°C° 0 mm 7 mps 691 mmHg 89%
    02:00 +5°C° 0 mm 7 mps 690 mmHg 89%
    03:00 +4°C° 0 mm 7 mps 690 mmHg 89%
    04:00 +5°C° 0 mm 7 mps 690 mmHg 88%
    05:00 +5°C° 0 mm 7 mps 690 mmHg 87%
    06:00 +5°C° 0 mm 7 mps 689 mmHg 86%
    07:00 +5°C° 0 mm 7 mps 689 mmHg 85%
    08:00 +5°C° 0 mm 7 mps 689 mmHg 84%
    09:00 +6°C° 0 mm 7 mps 689 mmHg 84%
    10:00 +6°C° 0 mm 8 mps 689 mmHg 79%
    11:00 +7°C° 0 mm 9 mps 689 mmHg 74%
    12:00 +8°C° 0 mm 10 mps 689 mmHg 69%
    13:00 +8°C° 0 mm 9 mps 688 mmHg 69%
    14:00 +8°C° 0 mm 9 mps 687 mmHg 70%
    15:00 +8°C° 0 mm 9 mps 687 mmHg 70%
    16:00 +9°C° 0 mm 8 mps 686 mmHg 74%
    17:00 +8°C° 0 mm 7 mps 686 mmHg 78%
    18:00 +8°C° 0 mm 7 mps 686 mmHg 81%
    19:00 +7°C° 0.5 mm 5 mps 685 mmHg 84%
    20:00 +7°C° 0.5 mm 4 mps 685 mmHg 87%
    21:00 +8°C° 0.5 mm 3 mps 685 mmHg 89%
    22:00 +8°C° 1.4 mm 3 mps 684 mmHg 90%
    23:00 +8°C° 1.4 mm 3 mps 684 mmHg 91%

    16 December, Monday

    Time Temperature Precipitation Wind Pressure Humidity
    00:00 +8°C° 1.4 mm 3 mps 683 mmHg 93%
    01:00 +8°C° 1.1 mm 3 mps 682 mmHg 92%
    02:00 +7°C° 1.1 mm 4 mps 682 mmHg 91%
    03:00 +7°C° 1.1 mm 4 mps 681 mmHg 90%
    04:00 +7°C° 0.7 mm 4 mps 680 mmHg 89%
    05:00 +6°C° 0.7 mm 4 mps 679 mmHg 89%
    06:00 +6°C° 0.7 mm 5 mps 678 mmHg 88%
    07:00 +6°C° 2.3 mm 5 mps 678 mmHg 88%
    08:00 +6°C° 2.3 mm 5 mps 678 mmHg 89%
    09:00 +6°C° 2.3 mm 5 mps 677 mmHg 90%
    10:00 +6°C° 1.5 mm 5 mps 677 mmHg 89%
    11:00 +6°C° 1.5 mm 5 mps 677 mmHg 89%
    12:00 +5°C° 1.5 mm 5 mps 677 mmHg 89%
    13:00 +6°C° 0.2 mm 5 mps 677 mmHg 86%
    14:00 +6°C° 0.2 mm 5 mps 677 mmHg 83%
    15:00 +7°C° 0.2 mm 6 mps 677 mmHg 80%
    16:00 +6°C° 0.2 mm 5 mps 677 mmHg 82%
    17:00 +5°C° 0.2 mm 5 mps 676 mmHg 84%
    18:00 +5°C° 0.2 mm 5 mps 676 mmHg 86%
    19:00 +3°C° 0.5 mm 5 mps 677 mmHg 88%
    20:00 +3°C° 0.5 mm 5 mps 677 mmHg 90%
    21:00 +2°C° 0.5 mm 5 mps 677 mmHg 92%
    22:00 +2°C° 0.7 mm 5 mps 678 mmHg 92%
    23:00 +3°C° 0.7 mm 4 mps 678 mmHg 93%

    17 December, Tuesday

    Time Temperature Precipitation Wind Pressure Humidity
    00:00 +3°C° 0.7 mm 4 mps 678 mmHg 93%
    01:00 +2°C° 0.3 mm 5 mps 678 mmHg 93%
    02:00 +2°C° 0.3 mm 5 mps 679 mmHg 92%
    03:00 +2°C° 0.3 mm 5 mps 679 mmHg 92%
    04:00 +1°C° 0.1 mm 5 mps 679 mmHg 92%
    05:00 +1°C° 0.1 mm 5 mps 680 mmHg 92%
    06:00 0°C° 0.1 mm 5 mps 680 mmHg 91%
    07:00 0°C° 0.2 mm 5 mps 681 mmHg 92%
    08:00 0°C° 0.2 mm 5 mps 682 mmHg 94%
    09:00 0°C° 0.2 mm 5 mps 683 mmHg 95%
    10:00 +1°C° 0.1 mm 5 mps 684 mmHg 91%
    11:00 +1°C° 0.1 mm 5 mps 684 mmHg 87%
    12:00 +1°C° 0.1 mm 5 mps 685 mmHg 84%
    13:00 +2°C° 0.1 mm 5 mps 685 mmHg 84%
    14:00 +3°C° 0.1 mm 4 mps 685 mmHg 84%
    15:00 +3°C° 0.1 mm 4 mps 686 mmHg 84%
    16:00 +2°C° 0.1 mm 3 mps 686 mmHg 86%
    17:00 +3°C° 0.1 mm 2 mps 687 mmHg 88%
    18:00 +3°C° 0.1 mm 1 mps 688 mmHg 90%
    19:00 +2°C° 0 mm 2 mps 688 mmHg 89%
    20:00 +2°C° 0 mm 2 mps 689 mmHg 89%
    21:00 +1°C° 0 mm 2 mps 689 mmHg 88%
    22:00 +1°C° 0 mm 2 mps 689 mmHg 88%
    23:00 -1°C° 0 mm 2 mps 689 mmHg 88%

    18 December, Wednesday

    Time Temperature Precipitation Wind Pressure Humidity
    00:00 -1°C° 0 mm 2 mps 690 mmHg 88%
    01:00 -1°C° 0 mm 2 mps 690 mmHg 86%
    02:00 -1°C° 0 mm 2 mps 690 mmHg 84%
    03:00 -1°C° 0 mm 2 mps 690 mmHg 82%
    04:00 0°C° 0 mm 3 mps 689 mmHg 78%
    05:00 -1°C° 0 mm 4 mps 689 mmHg 75%
    06:00 0°C° 0 mm 5 mps 689 mmHg 71%
    07:00 +1°C° 0.1 mm 6 mps 689 mmHg 74%
    08:00 0°C° 0.1 mm 7 mps 689 mmHg 78%
    09:00 +1°C° 0.1 mm 8 mps 689 mmHg 81%
    10:00 +2°C° 0.1 mm 9 mps 689 mmHg 80%
    11:00 +3°C° 0.1 mm 10 mps 689 mmHg 79%
    12:00 +5°C° 0.1 mm 12 mps 688 mmHg 77%
    13:00 +6°C° 0.1 mm 11 mps 688 mmHg 78%
    14:00 +6°C° 0.1 mm 11 mps 687 mmHg 78%
    15:00 +6°C° 0.1 mm 10 mps 686 mmHg 79%
    16:00 +6°C° 0.5 mm 9 mps 686 mmHg 82%
    17:00 +5°C° 0.5 mm 8 mps 685 mmHg 85%
    18:00 +5°C° 0.5 mm 8 mps 685 mmHg 88%
    19:00 +4°C° 2.3 mm 7 mps 684 mmHg 90%
    20:00 +4°C° 2.3 mm 6 mps 683 mmHg 91%
    21:00 +5°C° 2.3 mm 5 mps 683 mmHg 93%
    22:00 +4°C° 2.4 mm 7 mps 683 mmHg 93%
    23:00 +2°C° 2.4 mm 9 mps 682 mmHg 93%
    Show more